RH
11 9 8 8 19 22 23 24 30 34 39 40 34 28 28 20 22 50 24 22 20 28 28 10 9 5 6 8 8 9 10 10 11 11 11 11 10 10 10 10 10 10 10 11 10 9 11 12 12
15 12 10 11 19 48 24 29 33 34 41 38 31 25 20 17 18 30 32 17 17 18 25 13 8 6 5 7 8 8 9 9 9 10 10 10 10 10 10 9 9 10 10 10 11 10 10 11 12
16 16 13 13 17 57 30 29 29 33 31 25 26 27 22 21 25 30 33 23 14 16 27 14 8 7 5 6 6 7 7 8 8 9 9 8 8 8 9 10 10 10 8 8 10 10 11 11 11
17 17 14 18 17 18 19 21 25 31 35 33 31 33 29 30 23 27 30 30 18 16 20 24 15 7 6 5 5 6 6 8 8 7 7 8 8 8 8 8 8 9 11 11 10 10 11 13 12
13 18 18 17 17 18 17 20 27 28 33 33 37 38 37 25 24 32 37 42 39 20 18 23 24 10 6 6 5 6 6 6 7 6 6 7 8 8 8 8 9 9 10 13 12 10 10 14 16
12 14 19 21 21 20 19 19 25 27 25 28 36 41 43 34 15 30 50 43 36 34 25 20 21 16 10 8 7 7 7 8 8 8 7 8 7 7 8 10 10 10 11 12 14 15 12 12 14
13 18 18 20 24 23 22 22 23 25 26 26 30 38 42 32 20 21 35 36 30 29 33 22 22 18 13 11 12 11 11 12 11 10 10 10 11 12 11 13 16 17 15 14 14 16 19 19 17
21 27 22 23 27 25 25 25 26 27 29 31 36 39 44 35 23 19 20 24 25 30 30 33 30 27 24 21 19 17 13 12 15 15 16 18 20 18 15 17 23 22 16 16 16 16 17 22 26
30 34 35 23 28 31 31 31 29 30 32 36 39 44 42 52 42 25 20 21 23 27 31 42 46 41 35 31 29 24 24 24 28 30 37 41 40 39 44 56 64 57 45 23 23 20 20 24 29
36 28 37 38 28 24 31 35 37 36 35 37 43 45 46 50 58 40 29 24 25 24 29 37 43 56 48 36 31 33 28 26 28 37 50 55 50 45 42 60 77 78 74 86 74 63 51 38 33
33 27 28 46 48 31 26 31 37 40 44 44 44 50 53 55 56 61 60 36 41 52 45 38 34 33 37 42 44 39 33 28 32 34 38 44 47 42 55 80 73 68 90 72 67 68 75 85 72
31 28 37 42 44 50 53 41 34 36 43 45 49 52 50 54 56 61 64 68 63 51 47 52 43 31 33 33 41 51 45 42 35 35 35 35 41 44 71 73 59 55 53 58 63 65 70 72 80
26 30 32 33 34 32 40 61 60 40 44 45 46 50 52 52 52 55 59 61 62 66 70 68 50 54 39 45 47 50 55 55 57 69 63 62 84 71 61 65 59 56 57 57 54 58 56 56 61
24 24 25 26 30 31 31 47 56 55 50 52 56 59 54 55 58 58 58 60 70 79 63 64 55 50 46 50 55 54 44 48 48 64 70 79 85 80 63 66 58 57 58 53 48 47 44 42 43
24 23 23 24 28 33 31 37 58 57 56 53 51 53 56 57 60 67 64 63 66 65 69 60 56 54 56 62 73 77 83 69 51 47 55 54 52 56 53 55 57 56 51 51 56 54 50 48 48
21 22 24 26 28 32 31 33 34 50 62 63 81 60 62 76 84 86 82 82 92 92 88 78 67 69 81 90 96 99 94 85 90 63 47 45 51 49 46 45 45 46 43 47 52 54 53 49 48
19 21 24 29 30 32 32 33 34 36 46 51 62 75 87 78 76 77 88 93 98 95 96 96 95 99 98 99 93 90 90 82 63 58 54 47 44 46 45 44 42 43 48 50 48 47 48 49 46
17 20 24 29 30 27 32 35 39 38 36 41 59 75 76 82 92 96 96 100 100 96 94 95 86 90 89 88 90 88 80 61 86 95 90 69 73 64 56 51 49 53 54 53 52 52 50 49 50
17 21 23 28 28 32 37 47 47 45 40 38 40 62 79 66 86 91 94 95 87 98 93 97 97 93 91 93 79 69 63 74 96 84 94 92 92 66 49 52 56 60 59 60 57 50 49 49 46
14 20 22 25 28 36 42 56 57 50 46 47 47 49 51 53 62 72 78 85 92 95 86 82 78 83 95 99 97 97 96 90 64 67 65 65 86 96 93 80 74 59 54 56 53 49 55 52 50
21 22 26 26 24 32 38 51 66 58 55 59 54 51 54 63 69 79 83 81 74 69 77 86 92 94 92 82 77 77 77 80 85 94 92 84 83 86 85 98 96 97 74 68 64 63 57 61 65
48 39 44 33 27 34 31 50 96 70 63 62 60 56 63 76 89 94 90 86 86 79 71 64 64 75 88 99 97 99 97 98 98 96 97 96 97 89 94 96 87 95 90 90 88 85 84 87 85
30 28 27 30 29 29 35 37 83 78 61 58 62 71 83 95 94 95 94 80 79 80 73 67 59 52 52 58 74 93 97 96 96 95 95 98 97 98 98 96 97 97 96 97 97 91 91 83 79
39 39 39 36 34 36 41 44 62 100 69 71 86 94 94 90 84 85 82 68 71 78 70 57 53 52 47 43 44 51 82 97 97 98 97 98 97 98 98 98 97 97 97 97 94 91 87 83 76
62 59 54 50 65 64 78 50 53 60 70 90 92 89 93 86 88 76 57 56 61 66 63 55 46 40 39 41 47 56 65 100 98 96 97 94 94 94 95 95 96 91 91 95 91 85 80 77 71
58 55 51 48 86 100 97 68 96 62 67 88 96 99 96 75 60 47 47 54 60 65 63 53 45 48 53 63 57 64 73 69 100 99 96 97 98 94 95 94 92 90 88 85 82 81 77 71 60
42 36 56 59 59 63 70 100 66 65 84 96 96 93 74 55 49 48 48 41 46 58 61 50 47 52 68 70 78 91 91 82 84 94 98 97 97 97 97 96 94 89 85 80 77 74 66 54 38
44 27 60 77 79 73 100 100 90 97 97 95 95 82 71 68 57 60 57 40 51 61 66 61 60 64 73 80 93 100 99 97 98 100 98 98 98 97 97 95 95 94 86 76 70 56 31 15 8
24 18 68 74 72 82 93 100 93 98 92 100 99 96 84 77 70 66 58 46 34 50 61 69 81 87 96 100 98 93 96 100 100 100 99 98 99 98 99 100 100 95 79 50 25 11 9 10 11
18 43 93 83 84 100 99 73 90 98 96 82 79 80 78 71 64 56 53 37 49 59 64 75 83 92 92 85 87 93 96 98 100 97 99 99 100 100 100 96 80 39 13 10 11 13 14 14 14
Wind_Speed
6 5 4 4 5 4 4 2 4 5 9 9 12 14 15 8 4 3 6 8 5 3 2 3 3 1 3 4 8 10 9 8 8 8 8 7 7 7 7 6 5 4 4 4 3 3 5 4 3
5 6 4 4 4 3 5 4 7 7 9 13 15 15 14 9 5 7 8 7 6 4 4 3 3 3 3 4 3 4 5 4 3 3 3 3 2 3 4 5 5 6 8 8 8 8 8 9 7
5 5 7 3 3 9 7 7 7 8 10 13 13 16 15 11 6 7 8 8 6 5 4 6 5 7 7 6 6 4 4 4 4 5 5 5 5 6 7 7 8 9 10 11 12 12 12 11 10
8 4 5 7 5 4 4 5 6 9 11 13 14 14 18 17 8 7 8 10 9 7 7 6 7 8 9 10 8 9 9 8 8 8 9 10 10 10 10 11 11 12 12 13 16 16 15 13 14
9 8 5 8 6 4 5 6 9 9 13 12 14 16 19 17 9 4 4 8 13 9 9 9 9 10 12 12 12 12 12 13 13 13 13 14 15 15 16 16 16 16 15 14 14 17 17 17 16
11 11 8 10 8 6 6 7 10 12 11 13 15 16 15 17 10 6 5 8 11 12 13 11 11 12 13 13 14 14 14 14 15 16 17 17 18 19 20 20 20 20 19 19 18 18 18 20 20
14 12 13 11 10 9 8 8 10 12 12 13 14 18 13 12 7 6 9 9 10 14 16 15 15 14 14 15 15 16 16 17 18 18 19 19 20 20 21 21 21 21 21 22 22 21 21 20 22
11 16 10 13 13 12 11 12 12 12 12 10 13 16 17 12 11 6 8 11 11 15 17 18 17 18 18 17 17 18 19 19 20 20 21 22 22 24 23 25 24 23 22 23 23 23 23 23 22
14 16 15 11 14 14 13 12 14 15 14 15 16 17 16 17 14 11 10 11 13 15 17 20 21 21 22 22 22 22 23 24 24 25 25 25 26 27 26 26 27 27 25 22 22 23 24 23 22
14 17 15 16 14 13 13 13 13 16 18 20 20 20 16 16 17 15 14 15 15 17 19 21 23 28 28 27 28 29 29 30 29 29 30 30 30 30 30 28 31 28 28 24 24 24 24 24 24
16 19 17 16 18 14 14 17 14 15 17 17 22 19 18 17 20 20 20 21 21 21 23 25 26 28 31 32 33 34 34 33 32 32 32 32 31 30 27 26 27 28 25 27 27 27 28 28 29
15 17 18 16 13 19 19 19 19 21 22 22 21 20 19 20 20 22 26 25 25 26 27 28 27 29 32 33 32 34 33 33 35 35 34 33 32 31 28 30 29 28 27 29 30 32 35 34 30
16 15 16 20 18 16 19 21 22 20 24 24 27 22 23 26 26 27 27 28 30 30 30 30 32 31 33 34 34 35 35 34 35 35 35 35 34 34 32 32 32 33 32 32 33 35 36 35 33
21 19 19 19 22 17 17 19 23 23 24 22 25 28 25 29 30 30 31 31 29 30 30 32 34 35 34 36 36 37 38 37 37 38 38 37 35 36 35 36 37 37 35 36 36 36 36 37 37
21 21 24 22 22 19 17 20 18 22 21 21 22 23 24 26 27 28 27 28 30 30 29 31 34 34 36 36 36 37 38 38 38 39 39 40 39 37 38 38 38 38 38 39 39 39 39 39 39
25 24 26 26 25 23 19 23 21 20 22 22 21 20 17 17 21 24 25 24 25 29 29 29 31 33 35 36 37 36 38 41 40 42 44 45 43 42 42 42 42 41 41 43 43 43 42 43 43
27 26 25 30 28 27 23 23 23 21 21 20 21 23 23 25 25 26 28 27 27 26 26 29 32 35 38 38 39 41 42 44 46 46 46 44 45 44 45 45 44 44 44 44 45 46 46 46 46
29 27 26 30 34 30 28 24 24 21 21 22 23 24 27 28 29 28 29 32 31 32 31 31 32 34 36 38 40 41 43 45 45 46 49 48 46 46 47 48 48 47 47 47 48 48 49 50 51
30 29 27 29 36 31 30 25 25 26 23 24 25 25 25 26 27 34 37 37 38 40 40 38 41 42 43 43 46 46 51 49 46 49 52 50 51 54 53 52 52 52 51 51 51 52 52 51 51
30 30 29 31 36 34 31 27 27 28 27 26 25 25 29 31 33 32 32 30 33 40 46 48 48 48 49 53 55 54 56 54 55 55 58 58 57 55 57 57 56 55 55 55 55 55 52 53 54
31 30 33 36 38 36 35 30 27 30 30 29 27 28 32 29 33 31 34 36 34 34 35 38 41 45 53 57 58 59 59 57 55 57 56 58 61 57 60 60 60 60 59 58 56 56 57 58 59
40 38 40 39 37 33 37 31 29 29 32 31 32 32 34 38 43 37 34 37 36 35 36 40 42 46 51 54 56 58 56 62 59 59 63 60 58 63 63 60 60 60 60 59 62 63 60 62 64
37 34 35 36 36 38 37 34 29 33 31 32 34 38 40 44 39 34 34 38 37 39 41 43 46 46 47 49 52 55 53 57 56 59 58 48 55 54 58 60 58 60 60 55 59 58 59 59 56
36 36 36 38 38 42 36 34 30 33 32 33 38 40 43 42 34 34 39 40 41 41 44 46 48 51 53 51 50 52 52 52 46 48 48 49 49 49 51 55 55 52 52 52 55 55 58 57 57
30 33 36 39 37 34 36 37 33 37 37 37 40 42 42 36 39 38 42 42 43 44 46 48 50 50 53 53 52 52 54 56 57 52 50 53 54 56 57 55 54 57 57 57 54 53 54 55 57
22 26 30 36 30 27 38 40 32 34 37 39 42 37 37 38 38 43 45 47 47 45 46 49 54 51 50 48 51 51 54 59 60 61 60 58 58 56 56 58 59 57 58 58 57 57 59 61 61
21 25 28 31 35 36 34 31 35 36 39 41 33 37 36 34 34 34 39 46 43 44 45 47 51 50 47 46 47 45 53 57 60 63 66 58 55 56 58 60 61 60 61 62 62 62 63 64 64
27 29 29 28 32 34 27 37 36 35 33 36 40 37 39 40 42 47 50 52 49 44 43 44 44 46 46 46 45 46 51 53 57 58 57 55 59 63 63 64 64 64 65 65 66 66 65 63 62
29 29 28 26 28 34 35 29 34 33 35 35 39 45 47 52 51 54 56 56 55 50 47 45 43 43 43 45 46 50 52 56 57 60 61 63 66 68 68 67 68 68 69 68 67 65 65 65 64
29 28 27 26 27 30 36 37 37 28 34 39 41 45 47 50 53 57 59 58 55 49 46 44 45 47 47 50 52 54 55 57 60 62 65 69 71 71 71 72 72 71 69 68 69 69 69 68 67
Wind_Direction
309 305 310 329 345 325 318 286 285 266 254 265 280 279 283 276 293 279 351 5 32 30 8 13 29 81 154 154 140 138 142 145 144 144 147 154 162 164 169 185 186 188 207 212 215 233 239 235 271
295 311 304 321 322 222 282 281 251 259 263 273 284 286 283 285 312 352 349 348 8 348 314 302 330 328 237 221 193 155 156 158 165 163 183 212 224 245 248 252 245 243 239 247 251 246 245 243 253
288 311 299 304 267 201 247 251 261 256 267 284 311 298 299 300 314 319 335 328 338 346 296 299 309 307 280 252 246 241 236 236 245 248 245 252 258 265 265 269 273 270 269 268 262 263 263 256 254
291 293 270 256 293 299 292 259 241 254 266 285 326 307 291 300 301 303 320 334 332 332 326 285 285 274 265 264 258 268 273 276 276 270 270 270 269 267 266 269 268 272 272 267 270 271 270 274 271
306 310 289 266 280 294 289 272 254 254 268 283 298 318 307 304 303 261 290 324 319 323 318 306 290 282 264 260 264 261 268 276 281 278 281 281 280 281 283 286 289 289 285 278 268 267 268 271 273
318 328 317 291 286 282 294 292 270 281 287 288 290 321 305 307 302 242 220 267 292 307 307 300 288 282 272 265 264 263 260 260 263 269 277 281 283 285 287 288 286 284 284 282 278 274 269 268 270
332 329 324 311 301 298 293 291 296 294 300 313 310 336 312 293 297 266 242 250 275 282 283 295 296 287 277 273 272 271 273 275 276 274 273 273 275 275 275 275 277 280 280 278 276 277 277 276 275
1 350 328 318 311 302 305 300 291 292 305 302 310 325 327 294 296 274 251 253 260 266 279 284 288 291 288 280 281 284 283 281 281 280 280 279 276 274 272 273 275 275 272 271 272 272 272 276 279
329 349 330 326 302 303 302 297 295 296 301 309 312 308 315 316 288 283 272 253 252 258 271 277 274 275 277 278 280 284 288 285 284 282 279 278 277 280 279 281 281 279 271 269 271 274 273 272 275
320 330 331 329 315 302 290 288 287 293 297 298 303 301 308 302 308 276 274 268 259 261 265 268 270 267 270 270 275 279 282 282 282 281 281 282 284 283 287 290 285 285 267 272 272 272 273 274 271
313 326 330 329 320 318 304 282 274 272 274 272 288 284 291 298 294 293 270 260 266 268 264 265 266 267 271 275 275 274 279 279 279 279 279 279 280 279 281 281 281 283 267 276 282 281 274 281 277
306 318 322 323 331 313 307 303 291 278 270 265 258 266 265 277 277 283 285 278 271 268 272 275 268 264 268 270 273 278 277 275 279 278 276 275 276 274 276 276 276 278 277 277 278 280 282 283 280
293 302 310 314 320 328 319 299 303 300 286 280 280 271 272 274 275 276 277 276 280 273 272 272 268 267 268 272 272 272 272 275 275 275 275 272 273 272 271 271 271 269 268 270 272 274 276 277 276
282 289 295 301 309 319 317 303 294 284 288 283 282 286 276 273 277 284 282 278 276 270 270 262 263 265 268 270 274 272 268 268 269 270 272 274 272 274 275 276 276 276 275 276 275 274 273 273 272
274 279 286 294 301 305 312 305 305 287 280 279 275 277 279 279 283 285 283 277 272 265 262 262 263 266 267 268 270 274 276 275 268 267 266 269 272 272 273 273 273 274 274 274 273 273 274 273 273
275 275 281 290 292 296 304 299 305 302 287 280 273 266 263 269 273 279 278 274 274 269 267 262 263 265 266 268 271 265 268 269 272 274 276 277 274 271 271 272 273 273 275 277 279 276 273 272 272
274 276 276 284 284 290 297 296 300 305 303 301 298 289 271 261 269 275 278 279 280 276 267 264 265 267 269 269 268 269 270 275 276 275 275 273 272 273 274 273 271 271 271 271 271 271 272 273 273
275 271 273 276 280 286 290 289 291 291 295 299 295 289 294 296 277 267 273 277 278 272 267 262 260 262 265 266 267 266 267 271 271 275 274 272 273 272 272 270 268 268 269 271 270 269 269 270 273
273 272 270 271 277 280 287 285 290 293 296 298 299 301 304 308 301 278 271 266 262 270 270 273 265 261 261 267 269 268 265 266 271 270 277 271 268 274 278 276 274 273 272 274 273 273 273 274 274
274 271 272 270 273 277 280 279 283 287 293 293 294 299 302 305 304 299 296 295 289 273 270 271 271 266 266 266 268 269 274 277 272 269 269 268 272 268 272 270 274 276 273 274 272 270 274 274 274
270 273 272 272 273 276 276 278 279 281 288 289 292 300 302 298 300 301 299 294 291 289 289 290 288 289 277 272 273 272 276 276 276 276 273 270 268 270 270 274 270 269 269 272 274 273 274 276 278
272 271 272 272 275 271 277 272 276 276 284 287 286 291 293 297 296 300 298 306 297 296 298 294 292 288 287 284 279 273 285 275 282 283 275 270 269 267 272 274 275 270 270 274 273 274 277 279 279
269 269 270 274 275 274 274 273 279 283 276 283 287 291 289 297 305 306 305 309 305 298 294 294 293 291 286 283 285 292 291 292 288 288 283 276 273 272 273 274 271 272 272 273 275 278 278 279 278
271 275 275 274 274 275 281 275 277 274 285 286 283 289 297 299 303 302 308 307 303 298 293 291 290 290 290 289 286 281 283 284 280 277 274 270 271 271 271 273 278 280 282 282 280 281 279 279 281
274 276 278 280 281 287 275 277 277 280 288 290 295 296 296 301 305 304 306 303 297 292 290 291 294 294 289 285 283 278 277 273 274 271 271 273 276 277 279 280 281 282 284 285 285 284 283 281 280
286 284 283 283 279 271 279 284 287 292 294 294 297 301 300 303 307 307 307 305 300 295 290 292 293 292 290 285 281 279 276 273 273 274 274 275 278 281 280 282 283 287 287 287 288 287 285 284 282
293 289 291 287 284 284 286 282 291 298 295 298 299 294 295 306 308 314 320 323 315 303 295 295 296 294 291 288 286 281 277 277 275 274 278 281 282 283 284 285 287 289 290 289 287 284 282 281 280
286 292 289 282 283 287 287 289 298 303 305 295 291 291 301 306 306 309 318 324 318 311 302 300 298 296 294 292 290 287 284 284 282 281 283 283 285 288 291 291 290 289 287 285 283 281 281 280 279
284 288 287 277 276 283 288 286 289 295 297 292 291 293 298 301 302 305 308 315 316 312 307 305 301 298 295 292 286 283 284 284 284 281 283 284 287 289 289 289 288 288 287 287 287 285 283 282 280
284 286 282 274 275 273 287 294 301 295 287 288 297 299 301 305 307 306 308 313 312 311 308 304 302 300 295 291 289 288 287 284 282 282 284 285 287 288 289 289 289 289 288 287 286 285 284 283 282